Overview Statistics Trail Chart Weather Telemetry Raw packets
 

This is the latest recevied weather packets stored in our database for station/object N7ZEF. If no packets are shown the sender has not sent any weather packets the latest 10 day(s).

<< 1 2 3 4 5 >>
Time Temp. Humidity Pressure Rain* Wind** Luminosity Snow
1778169823 9.44° C 45% 1019.3 hPa 0 mm - - -
1778169223 9.44° C 45% 1019.4 hPa 0 mm - - -
1778168019 10° C 44% 1019.4 hPa 0 mm - - -
1778167419 10° C 44% 1019.7 hPa 0 mm - - -
1778166816 10° C 45% 1019.8 hPa 0 mm - - -
1778166218 9.44° C 47% 1019.8 hPa 0 mm - - -
1778165614 8.89° C 47% 1020.2 hPa 0 mm - - -
1778164414 7.22° C 50% 1020.3 hPa 0 mm - - -
1778163811 7.22° C 48% 1019.9 hPa 0 mm - - -
1778163209 7.22° C 49% 1019.9 hPa 0 mm - - -
1778162606 7.22° C 53% 1019.9 hPa 0 mm - - -
1778162008 6.67° C 54% 1020.1 hPa 0 mm - - -
1778160802 6.67° C 54% 1020.3 hPa 0 mm - - -
1778160201 6.67° C 54% 1020.2 hPa 0 mm - - -
1778159624 6.67° C 55% 1020.3 hPa 0 mm - - -
1778158998 6.11° C 55% 1020.4 hPa 0 mm - - -
1778158398 5.56° C 56% 1020.6 hPa 0 mm - - -
1778157827 5.56° C 53% 1020.2 hPa 0 mm - - -
1778157194 5.56° C 54% 1019.9 hPa 0 mm - - -
1778156592 5.56° C 54% 1019.4 hPa 0 mm - - -
1778155390 5° C 54% 1018.9 hPa 0 mm - - -
1778154788 5° C 54% 1018.7 hPa 0 mm - - -
1778154187 5° C 54% 1019 hPa 0 mm - - -
1778153586 5.56° C 54% 1019.2 hPa 0 mm - - -
1778152412 5.56° C 56% 1019.3 hPa 0 mm - - -

* Rain latest hour (hover to see other rain measurements)
** Current wind speed in m/s (hover to see current wind gust speed)